Weather Roundup
Issued by NWS Springfield, MO

Home | Current Version | Previous Version | Text Only | Print | Product List | Glossary On
Versions: 1 2 3 4 5 6 7 8 9 10 11 12 13 14 15 16 17 18 19 20 21 22 23 24 25 26 27 28 29 30 31 32 33 34 35 36 37 38 39 40 41 42 43 44 45 46 47 48 49 50
000
NZUS99 KSGF 272307
HRRSGF

HOURLY WEATHER
NATIONAL WEATHER SERVICE SPRINGFIELD MO
600 PM CDT MON MAR 27 2017

......SGF CWA......

CITY           SKY/WX    TMP DP  RH WIND       PRES   REMARKS
SPRINGFIELD    CLOUDY    54  50  86 NW7       29.89R
JOPLIN         CLOUDY    52  50  93 NW6       29.92S
WEST PLAINS    SUNNY     65  51  60 W13G21    29.85R
ROLLA          CLOUDY    56  55  97 N12       29.84R
OSAGE BEACH    CLOUDY   N/A N/A N/A NW6       29.89S
BRANSON        CLOUDY    59  54  82 NW10      29.88R

......SURROUNDING SGF CWA......

CITY           SKY/WX    TMP DP  RH WIND       PRES   REMARKS
CHANUTE        CLOUDY    55  47  74 NW9       29.93R
PARSONS        CLOUDY    56  48  74 N9        29.93S
COFFEYVILLE    CLOUDY    57  48  72 N8        29.92F
EMPORIA        CLOUDY    55  48  77 NE6       29.92S
GROVE OK       CLOUDY    55  52  88 NW6       29.93S
SILOAM SPRINGS CLOUDY    54  46  76 N10       29.91F
HARRISON AR    CLOUDY    62  53  72 NW13      29.87R
NEAR YELLVILLE SUNNY     66  52  59 N9        29.82S

......KANSAS AND MISSOURI......

CITY           SKY/WX    TMP DP  RH WIND       PRES   REMARKS
KANSAS CTY INT CLOUDY    53  47  79 N9        29.93R
DOWNTOWN KC    CLOUDY    54  46  74 N8        29.92S
COLUMBIA       LGT RAIN  54  54 100 NW7       29.87S FOG
SEDALIA        CLOUDY    53  50  89 N13       29.91R
ST JOSEPH      CLOUDY    55  47  74 N9        29.93S
ST LOUIS       CLOUDY    58  52  80 N7        29.84R
SPIRIT OF STL  CLOUDY    57  54  89 N5        29.84R FOG
KIRKSVILLE     CLOUDY    50  47  89 N10       29.91F
WICHITA        CLOUDY    53  46  77 NE9       29.92F
TOPEKA         CLOUDY    57  49  74 N9        29.92S
OLATHE         CLOUDY    51  47  86 N8        29.92S

......TENNESSEE......

CITY           SKY/WX    TMP DP  RH WIND       PRES   REMARKS
MEMPHIS        MOSUNNY   80  61  52 SW17G25   29.77R
NASHVILLE      CLOUDY    64  58  80 NE10      29.86F

......ARKANSAS.......

CITY           SKY/WX    TMP DP  RH WIND       PRES   REMARKS
FAYETTEVILLE   CLOUDY    53  52  96 N8        29.90S FOG
FT SMITH       CLOUDY    62  51  67 NW10      29.89R
LITTLE ROCK    MOSUNNY   77  61  57 NW13G22   29.79R

......OKLAHOMA.......

CITY           SKY/WX    TMP DP  RH WIND       PRES   REMARKS
TULSA          PTSUNNY   63  50  62 N9        29.90R
PONCA CITY     MOSUNNY   59  47  64 NE9       29.91F
MCALESTER      SUNNY     69  50  50 NE9       29.88S
OKLAHOMA CITY  MOSUNNY   69  46  43 NE6       29.88F

......IOWA............

CITY           SKY/WX    TMP DP  RH WIND       PRES   REMARKS
DES MOINES     CLOUDY    51  42  71 N7        29.93S
QUAD CITIES    CLOUDY    53  45  74 N8        29.89S

......ILLINOIS........

CITY           SKY/WX    TMP DP  RH WIND       PRES   REMARKS
QUINCY         CLOUDY    54  51  90 N13       29.88R
CHICAGO        CLOUDY    46  41  82 NE9       29.90S



USA.gov is the U.S. government's official web portal to all federal, state and local government web resources and services.